Year,Month,Day,Hour,Minute,Value (Times are PST for temperature in C)
2019,03,29,00,00,5.60
2019,03,29,00,01,5.60
2019,03,29,00,02,5.60
2019,03,29,00,03,5.60
2019,03,29,00,04,5.60
2019,03,29,00,05,5.50
2019,03,29,00,06,5.50
2019,03,29,00,07,5.50
2019,03,29,00,08,5.40
2019,03,29,00,09,5.40
2019,03,29,00,10,5.40
2019,03,29,00,11,5.30
2019,03,29,00,12,5.30
2019,03,29,00,13,5.30
2019,03,29,00,14,5.30
2019,03,29,00,15,5.30
2019,03,29,00,16,5.30
2019,03,29,00,17,5.20
2019,03,29,00,18,5.20
2019,03,29,00,19,5.20
2019,03,29,00,20,5.20
2019,03,29,00,21,5.20
2019,03,29,00,22,5.20
2019,03,29,00,23,5.20
2019,03,29,00,24,5.20
2019,03,29,00,25,5.20
2019,03,29,00,26,5.10
2019,03,29,00,27,5.10
2019,03,29,00,28,5.10
2019,03,29,00,29,5.10
2019,03,29,00,30,5.10
2019,03,29,00,31,5.00
2019,03,29,00,32,5.00
2019,03,29,00,33,5.00
2019,03,29,00,34,4.90
2019,03,29,00,35,4.90
2019,03,29,00,36,4.90
2019,03,29,00,37,4.90
2019,03,29,00,38,4.90
2019,03,29,00,39,4.90
2019,03,29,00,40,4.90
2019,03,29,00,41,4.90
2019,03,29,00,42,4.90
2019,03,29,00,43,4.90
2019,03,29,00,44,4.90
2019,03,29,00,45,4.90
2019,03,29,00,46,4.90
2019,03,29,00,47,4.90
2019,03,29,00,48,4.90
2019,03,29,00,49,4.90
2019,03,29,00,50,4.90
2019,03,29,00,51,4.90
2019,03,29,00,52,4.80
2019,03,29,00,53,4.80
2019,03,29,00,54,4.80
2019,03,29,00,55,4.80
2019,03,29,00,56,4.80
2019,03,29,00,57,4.70
2019,03,29,00,58,4.70
2019,03,29,00,59,4.70
2019,03,29,01,00,4.70
2019,03,29,01,01,4.70
2019,03,29,01,02,4.60
2019,03,29,01,03,4.60
2019,03,29,01,04,4.60
2019,03,29,01,05,4.50
2019,03,29,01,06,4.50
2019,03,29,01,07,4.40
2019,03,29,01,08,4.40
2019,03,29,01,09,4.40
2019,03,29,01,10,4.40
2019,03,29,01,11,4.40
2019,03,29,01,12,4.40
2019,03,29,01,13,4.40
2019,03,29,01,14,4.40
2019,03,29,01,15,4.40
2019,03,29,01,16,4.40
2019,03,29,01,17,4.40
2019,03,29,01,18,4.40
2019,03,29,01,19,4.40
2019,03,29,01,20,4.40
2019,03,29,01,21,4.40
2019,03,29,01,22,4.40
2019,03,29,01,23,4.40
2019,03,29,01,24,4.40
2019,03,29,01,25,4.40
2019,03,29,01,26,4.40
2019,03,29,01,27,4.40
2019,03,29,01,28,4.40
2019,03,29,01,29,4.40
2019,03,29,01,30,4.30
2019,03,29,01,31,4.30
2019,03,29,01,32,4.30
2019,03,29,01,33,4.30
2019,03,29,01,34,4.30
2019,03,29,01,35,4.30
2019,03,29,01,36,4.30
2019,03,29,01,37,4.30
2019,03,29,01,38,4.30
2019,03,29,01,39,4.30
2019,03,29,01,40,4.20
2019,03,29,01,41,4.20
2019,03,29,01,42,4.20
2019,03,29,01,43,4.20
2019,03,29,01,44,4.20
2019,03,29,01,45,4.20
2019,03,29,01,46,4.10
2019,03,29,01,47,4.10
2019,03,29,01,48,4.10
2019,03,29,01,49,4.10
2019,03,29,01,50,4.10
2019,03,29,01,51,4.00
2019,03,29,01,52,4.00
2019,03,29,01,53,4.00
2019,03,29,01,54,3.90
2019,03,29,01,55,3.90
2019,03,29,01,56,3.90
2019,03,29,01,57,3.90
2019,03,29,01,58,3.90
2019,03,29,01,59,3.90
2019,03,29,02,00,3.80
2019,03,29,02,01,3.80
2019,03,29,02,02,3.80
2019,03,29,02,03,3.80
2019,03,29,02,04,3.80
2019,03,29,02,05,3.80
2019,03,29,02,06,3.70
2019,03,29,02,07,3.70
2019,03,29,02,08,3.70
2019,03,29,02,09,3.70
2019,03,29,02,10,3.70
2019,03,29,02,11,3.60
2019,03,29,02,12,3.60
2019,03,29,02,13,3.60
2019,03,29,02,14,3.60
2019,03,29,02,15,3.60
2019,03,29,02,16,3.50
2019,03,29,02,17,3.50
2019,03,29,02,18,3.50
2019,03,29,02,19,3.50
2019,03,29,02,20,3.50
2019,03,29,02,21,3.50
2019,03,29,02,22,3.40
2019,03,29,02,23,3.40
2019,03,29,02,24,3.40
2019,03,29,02,25,3.40
2019,03,29,02,26,3.40
2019,03,29,02,27,3.40
2019,03,29,02,28,3.50
2019,03,29,02,29,3.50
2019,03,29,02,30,3.50
2019,03,29,02,31,3.50
2019,03,29,02,32,3.50
2019,03,29,02,33,3.50
2019,03,29,02,34,3.50
2019,03,29,02,35,3.50
2019,03,29,02,36,3.50
2019,03,29,02,37,3.50
2019,03,29,02,38,3.50
2019,03,29,02,39,3.50
2019,03,29,02,40,3.50
2019,03,29,02,41,3.50
2019,03,29,02,42,3.50
2019,03,29,02,43,3.50
2019,03,29,02,44,3.50
2019,03,29,02,45,3.50
2019,03,29,02,46,3.50
2019,03,29,02,47,3.40
2019,03,29,02,48,3.40
2019,03,29,02,49,3.40
2019,03,29,02,50,3.40
2019,03,29,02,51,3.40
2019,03,29,02,52,3.40
2019,03,29,02,53,3.40
2019,03,29,02,54,3.40
2019,03,29,02,55,3.40
2019,03,29,02,56,3.30
2019,03,29,02,57,3.30
2019,03,29,02,58,3.30
2019,03,29,02,59,3.30
2019,03,29,03,00,3.30
2019,03,29,03,01,3.30
2019,03,29,03,02,3.30
2019,03,29,03,03,3.30
2019,03,29,03,04,3.30
2019,03,29,03,05,3.30
2019,03,29,03,06,3.20
2019,03,29,03,07,3.20
2019,03,29,03,08,3.20
2019,03,29,03,09,3.20
2019,03,29,03,10,3.20
2019,03,29,03,11,3.20
2019,03,29,03,12,3.20
2019,03,29,03,13,3.20
2019,03,29,03,14,3.20
2019,03,29,03,15,3.20
2019,03,29,03,16,3.20
2019,03,29,03,17,3.20
2019,03,29,03,18,3.20
2019,03,29,03,19,3.20
2019,03,29,03,20,3.20
2019,03,29,03,21,3.10
2019,03,29,03,22,3.10
2019,03,29,03,23,3.10
2019,03,29,03,24,3.10
2019,03,29,03,25,3.10
2019,03,29,03,26,3.10
2019,03,29,03,27,3.10
2019,03,29,03,28,3.10
2019,03,29,03,29,3.10
2019,03,29,03,30,3.10
2019,03,29,03,31,3.10
2019,03,29,03,32,3.10
2019,03,29,03,33,3.20
2019,03,29,03,34,3.20
2019,03,29,03,35,3.20
2019,03,29,03,36,3.20
2019,03,29,03,37,3.20
2019,03,29,03,38,3.20
2019,03,29,03,39,3.20
2019,03,29,03,40,3.20
2019,03,29,03,41,3.20
2019,03,29,03,42,3.20
2019,03,29,03,43,3.20
2019,03,29,03,44,3.20
2019,03,29,03,45,3.20
2019,03,29,03,46,3.20
2019,03,29,03,47,3.20
2019,03,29,03,48,3.20
2019,03,29,03,49,3.20
2019,03,29,03,50,3.20
2019,03,29,03,51,3.20
2019,03,29,03,52,3.20
2019,03,29,03,53,3.20
2019,03,29,03,54,3.20
2019,03,29,03,55,3.20
2019,03,29,03,56,3.20
2019,03,29,03,57,3.20
2019,03,29,03,58,3.10
2019,03,29,03,59,3.10
2019,03,29,04,00,3.10
2019,03,29,04,01,3.10
2019,03,29,04,02,3.10
2019,03,29,04,03,3.10
2019,03,29,04,04,3.10
2019,03,29,04,05,3.10
2019,03,29,04,06,3.10
2019,03,29,04,07,3.10
2019,03,29,04,08,3.10
2019,03,29,04,09,3.10
2019,03,29,04,10,3.10
2019,03,29,04,11,3.00
2019,03,29,04,12,3.00
2019,03,29,04,13,2.90
2019,03,29,04,14,2.90
2019,03,29,04,15,2.90
2019,03,29,04,16,2.90
2019,03,29,04,17,2.90
2019,03,29,04,18,2.80
2019,03,29,04,19,2.80
2019,03,29,04,20,2.80
2019,03,29,04,21,2.80
2019,03,29,04,22,2.80
2019,03,29,04,23,2.80
2019,03,29,04,24,2.80
2019,03,29,04,25,2.80
2019,03,29,04,26,2.80
2019,03,29,04,27,2.70
2019,03,29,04,28,2.70
2019,03,29,04,29,2.70
2019,03,29,04,30,2.70
2019,03,29,04,31,2.70
2019,03,29,04,32,2.70
2019,03,29,04,33,2.60
2019,03,29,04,34,2.60
2019,03,29,04,35,2.60
2019,03,29,04,36,2.60
2019,03,29,04,37,2.60
2019,03,29,04,38,2.60
2019,03,29,04,39,2.60
2019,03,29,04,40,2.60
2019,03,29,04,41,2.60
2019,03,29,04,42,2.50
2019,03,29,04,43,2.50
2019,03,29,04,44,2.50
2019,03,29,04,45,2.50
2019,03,29,04,46,2.50
2019,03,29,04,47,2.50
2019,03,29,04,48,2.50
2019,03,29,04,49,2.50
2019,03,29,04,50,2.50
2019,03,29,04,51,2.40
2019,03,29,04,52,2.40
2019,03,29,04,53,2.40
2019,03,29,04,54,2.40
2019,03,29,04,55,2.40
2019,03,29,04,56,2.40
2019,03,29,04,57,2.40
2019,03,29,04,58,2.40
2019,03,29,04,59,2.30
2019,03,29,05,00,2.40
2019,03,29,05,01,2.30
2019,03,29,05,02,2.30
2019,03,29,05,03,2.30
2019,03,29,05,04,2.30
2019,03,29,05,05,2.30
2019,03,29,05,06,2.40
2019,03,29,05,07,2.40
2019,03,29,05,08,2.30
2019,03,29,05,09,2.30
2019,03,29,05,10,2.30
2019,03,29,05,11,2.30
2019,03,29,05,12,2.30
2019,03,29,05,13,2.30
2019,03,29,05,14,2.30
2019,03,29,05,15,2.30
2019,03,29,05,16,2.40
2019,03,29,05,17,2.40
2019,03,29,05,18,2.40
2019,03,29,05,19,2.40
2019,03,29,05,20,2.40
2019,03,29,05,21,2.40
2019,03,29,05,22,2.40
2019,03,29,05,23,2.40
2019,03,29,05,24,2.40
2019,03,29,05,25,2.40
2019,03,29,05,26,2.40
2019,03,29,05,27,2.30
2019,03,29,05,28,2.30
2019,03,29,05,29,2.30
2019,03,29,05,30,2.30
2019,03,29,05,31,2.20
2019,03,29,05,32,2.20
2019,03,29,05,33,2.20
2019,03,29,05,34,2.20
2019,03,29,05,35,2.20
2019,03,29,05,36,2.10
2019,03,29,05,37,2.10
2019,03,29,05,38,2.10
2019,03,29,05,39,2.10
2019,03,29,05,40,2.10
2019,03,29,05,41,2.10
2019,03,29,05,42,2.10
2019,03,29,05,43,2.10
2019,03,29,05,44,2.20
2019,03,29,05,45,2.20
2019,03,29,05,46,2.20
2019,03,29,05,47,2.20
2019,03,29,05,48,2.20
2019,03,29,05,49,2.20
2019,03,29,05,50,2.20
2019,03,29,05,51,2.20
2019,03,29,05,52,2.20
2019,03,29,05,53,2.20
2019,03,29,05,54,2.20
2019,03,29,05,55,2.20
2019,03,29,05,56,2.20
2019,03,29,05,57,2.20
2019,03,29,05,58,2.10
2019,03,29,05,59,2.10
2019,03,29,06,00,2.10
2019,03,29,06,01,2.10
2019,03,29,06,02,2.10
2019,03,29,06,03,2.10
2019,03,29,06,04,2.10
2019,03,29,06,05,2.10
2019,03,29,06,06,2.10
2019,03,29,06,07,2.10
2019,03,29,06,08,2.20
2019,03,29,06,09,2.20
2019,03,29,06,10,2.20
2019,03,29,06,11,2.20
2019,03,29,06,12,2.30
2019,03,29,06,13,2.30
2019,03,29,06,14,2.30
2019,03,29,06,15,2.30
2019,03,29,06,16,2.30
2019,03,29,06,17,2.30
2019,03,29,06,18,2.20
2019,03,29,06,19,2.20
2019,03,29,06,20,2.20
2019,03,29,06,21,2.20
2019,03,29,06,22,2.20
2019,03,29,06,23,2.20
2019,03,29,06,24,2.20
2019,03,29,06,25,2.20
2019,03,29,06,26,2.20
2019,03,29,06,27,2.10
2019,03,29,06,28,2.10
2019,03,29,06,29,2.10
2019,03,29,06,30,2.10
2019,03,29,06,31,2.10
2019,03,29,06,32,2.10
2019,03,29,06,33,2.10
2019,03,29,06,34,2.10
2019,03,29,06,35,2.10
2019,03,29,06,36,2.10
2019,03,29,06,37,2.10
2019,03,29,06,38,2.10
2019,03,29,06,39,2.10
2019,03,29,06,40,2.10
2019,03,29,06,41,2.10
2019,03,29,06,42,2.10
2019,03,29,06,43,2.10
2019,03,29,06,44,2.10
2019,03,29,06,45,2.00
2019,03,29,06,46,2.00
2019,03,29,06,47,1.90
2019,03,29,06,48,1.90
2019,03,29,06,49,1.90
2019,03,29,06,50,1.90
2019,03,29,06,51,1.90
2019,03,29,06,52,1.90
2019,03,29,06,53,1.90
2019,03,29,06,54,1.90
2019,03,29,06,55,1.90
2019,03,29,06,56,1.90
2019,03,29,06,57,1.90
2019,03,29,06,58,1.90
2019,03,29,06,59,1.80
2019,03,29,07,00,1.80
2019,03,29,07,01,1.90
2019,03,29,07,02,1.90
2019,03,29,07,03,1.90
2019,03,29,07,04,1.90
2019,03,29,07,05,1.90
2019,03,29,07,06,1.90
2019,03,29,07,07,1.90
2019,03,29,07,08,1.80
2019,03,29,07,09,1.80
2019,03,29,07,10,1.90
2019,03,29,07,11,1.90
2019,03,29,07,12,1.90
2019,03,29,07,13,1.80
2019,03,29,07,14,1.80
2019,03,29,07,15,1.90
2019,03,29,07,16,1.90
2019,03,29,07,17,1.90
2019,03,29,07,18,1.90
2019,03,29,07,19,1.90
2019,03,29,07,20,1.90
2019,03,29,07,21,1.90
2019,03,29,07,22,1.90
2019,03,29,07,23,1.90
2019,03,29,07,24,1.90
2019,03,29,07,25,1.90
2019,03,29,07,26,1.90
2019,03,29,07,27,1.90
2019,03,29,07,28,2.00
2019,03,29,07,29,2.00
2019,03,29,07,30,2.00
2019,03,29,07,31,2.10
2019,03,29,07,32,2.10
2019,03,29,07,33,2.10
2019,03,29,07,34,2.10
2019,03,29,07,35,2.20
2019,03,29,07,36,2.20
2019,03,29,07,37,2.20
2019,03,29,07,38,2.30
2019,03,29,07,39,2.30
2019,03,29,07,40,2.30
2019,03,29,07,41,2.40
2019,03,29,07,42,2.50
2019,03,29,07,43,2.60
2019,03,29,07,44,2.70
2019,03,29,07,45,2.70
2019,03,29,07,46,2.80
2019,03,29,07,47,2.80
2019,03,29,07,48,2.90
2019,03,29,07,49,2.90
2019,03,29,07,50,3.00
2019,03,29,07,51,3.10
2019,03,29,07,52,3.20
2019,03,29,07,53,3.30
2019,03,29,07,54,3.40
2019,03,29,07,55,3.50
2019,03,29,07,56,3.60
2019,03,29,07,57,3.70
2019,03,29,07,58,3.70
2019,03,29,07,59,3.80
2019,03,29,08,00,3.80
2019,03,29,08,01,3.90
2019,03,29,08,02,3.90
2019,03,29,08,03,4.00
2019,03,29,08,04,4.10
2019,03,29,08,05,4.30
2019,03,29,08,06,4.30
2019,03,29,08,07,4.40
2019,03,29,08,08,4.50
2019,03,29,08,09,4.60
2019,03,29,08,10,4.60
2019,03,29,08,11,4.60
2019,03,29,08,12,4.60
2019,03,29,08,13,4.60
2019,03,29,08,14,4.60
2019,03,29,08,15,4.60
2019,03,29,08,16,4.50
2019,03,29,08,17,4.50
2019,03,29,08,18,4.40
2019,03,29,08,19,4.40
2019,03,29,08,20,4.40
2019,03,29,08,21,4.40
2019,03,29,08,22,4.40
2019,03,29,08,23,4.40
2019,03,29,08,24,4.40
2019,03,29,08,25,4.40
2019,03,29,08,26,4.40
2019,03,29,08,27,4.50
2019,03,29,08,28,4.50
2019,03,29,08,29,4.60
2019,03,29,08,30,4.60
2019,03,29,08,31,4.70
2019,03,29,08,32,4.70
2019,03,29,08,33,4.80
2019,03,29,08,34,4.90
2019,03,29,08,35,5.00
2019,03,29,08,36,5.10
2019,03,29,08,37,5.10
2019,03,29,08,38,5.20
2019,03,29,08,39,5.30
2019,03,29,08,40,5.30
2019,03,29,08,41,5.40
2019,03,29,08,42,5.50
2019,03,29,08,43,5.60
2019,03,29,08,44,5.70
2019,03,29,08,45,5.80
2019,03,29,08,46,5.80
2019,03,29,08,47,5.90
2019,03,29,08,48,6.00
2019,03,29,08,49,6.10
2019,03,29,08,50,6.20
2019,03,29,08,51,6.30
2019,03,29,08,52,6.40
2019,03,29,08,53,6.50
2019,03,29,08,54,6.60
2019,03,29,08,55,6.70
2019,03,29,08,56,6.80
2019,03,29,08,57,6.90
2019,03,29,08,58,7.00
2019,03,29,08,59,7.10
2019,03,29,09,00,7.10
2019,03,29,09,01,7.20
2019,03,29,09,02,7.30
2019,03,29,09,03,7.30
2019,03,29,09,04,7.40
2019,03,29,09,05,7.50
2019,03,29,09,06,7.60
2019,03,29,09,07,7.60
2019,03,29,09,08,7.70
2019,03,29,09,09,7.80
2019,03,29,09,10,7.90
2019,03,29,09,11,8.00
2019,03,29,09,12,8.00
2019,03,29,09,13,8.10
2019,03,29,09,14,8.20
2019,03,29,09,15,8.30
2019,03,29,09,16,8.30
2019,03,29,09,17,8.40
2019,03,29,09,18,8.50
2019,03,29,09,19,8.60
2019,03,29,09,20,8.70
2019,03,29,09,21,8.80
2019,03,29,09,22,8.90
2019,03,29,09,23,9.00
2019,03,29,09,24,9.00
2019,03,29,09,25,9.10
2019,03,29,09,26,9.20
2019,03,29,09,27,9.30
2019,03,29,09,28,9.40
2019,03,29,09,29,9.50
2019,03,29,09,30,9.60
2019,03,29,09,31,9.70
2019,03,29,09,32,9.80
2019,03,29,09,33,9.90
2019,03,29,09,34,10.00
2019,03,29,09,35,10.20
2019,03,29,09,36,10.30
2019,03,29,09,37,10.40
2019,03,29,09,38,10.60
2019,03,29,09,39,10.70
2019,03,29,09,40,10.80
2019,03,29,09,41,11.00
2019,03,29,09,42,11.10
2019,03,29,09,43,11.10
2019,03,29,09,44,11.20
2019,03,29,09,45,11.30
2019,03,29,09,46,11.30
2019,03,29,09,47,11.40
2019,03,29,09,48,11.50
2019,03,29,09,49,11.60
2019,03,29,09,50,11.60
2019,03,29,09,51,11.60
2019,03,29,09,52,11.60
2019,03,29,09,53,11.60
2019,03,29,09,54,11.60
2019,03,29,09,55,11.60
2019,03,29,09,56,11.60
2019,03,29,09,57,11.70
2019,03,29,09,58,11.70
2019,03,29,09,59,11.70
2019,03,29,10,00,11.80
2019,03,29,10,01,11.90
2019,03,29,10,02,12.00
2019,03,29,10,03,12.00
2019,03,29,10,04,12.10
2019,03,29,10,05,12.20
2019,03,29,10,06,12.20
2019,03,29,10,07,12.30
2019,03,29,10,08,12.30
2019,03,29,10,09,12.30
2019,03,29,10,10,12.40
2019,03,29,10,11,12.40
2019,03,29,10,12,12.40
2019,03,29,10,13,12.50
2019,03,29,10,14,12.50
2019,03,29,10,15,12.50
2019,03,29,10,16,12.50
2019,03,29,10,17,12.40
2019,03,29,10,18,12.40
2019,03,29,10,19,12.30
2019,03,29,10,20,12.30
2019,03,29,10,21,12.30
2019,03,29,10,22,12.30
2019,03,29,10,23,12.30
2019,03,29,10,24,12.30
2019,03,29,10,25,12.30
2019,03,29,10,26,12.40
2019,03,29,10,27,12.40
2019,03,29,10,28,12.40
2019,03,29,10,29,12.50
2019,03,29,10,30,12.50
2019,03,29,10,31,12.50
2019,03,29,10,32,12.40
2019,03,29,10,33,12.40
2019,03,29,10,34,12.40
2019,03,29,10,35,12.40
2019,03,29,10,36,12.50
2019,03,29,10,37,12.50
2019,03,29,10,38,12.50
2019,03,29,10,39,12.50
2019,03,29,10,40,12.40
2019,03,29,10,41,12.50
2019,03,29,10,42,12.60
2019,03,29,10,43,12.60
2019,03,29,10,44,12.70
2019,03,29,10,45,12.70
2019,03,29,10,46,12.80
2019,03,29,10,47,12.90
2019,03,29,10,48,13.00
2019,03,29,10,49,13.10
2019,03,29,10,50,13.10
2019,03,29,10,51,13.20
2019,03,29,10,52,13.20
2019,03,29,10,53,13.30
2019,03,29,10,54,13.30
2019,03,29,10,55,13.30
2019,03,29,10,56,13.30
2019,03,29,10,57,13.30
2019,03,29,10,58,13.30
2019,03,29,10,59,13.30
2019,03,29,11,00,13.40
2019,03,29,11,01,13.40
2019,03,29,11,02,13.40
2019,03,29,11,03,13.50
2019,03,29,11,04,13.50
2019,03,29,11,05,13.60
2019,03,29,11,06,13.70
2019,03,29,11,07,13.70
2019,03,29,11,08,13.80
2019,03,29,11,09,13.80
2019,03,29,11,10,13.90
2019,03,29,11,11,13.90
2019,03,29,11,12,13.90
2019,03,29,11,13,13.80
2019,03,29,11,14,13.80
2019,03,29,11,15,13.80
2019,03,29,11,16,13.80
2019,03,29,11,17,13.70
2019,03,29,11,18,13.60
2019,03,29,11,19,13.60
2019,03,29,11,20,13.60
2019,03,29,11,21,13.60
2019,03,29,11,22,13.70
2019,03,29,11,23,13.70
2019,03,29,11,24,13.70
2019,03,29,11,25,13.60
2019,03,29,11,26,13.60
2019,03,29,11,27,13.50
2019,03,29,11,28,13.40
2019,03,29,11,29,13.30
2019,03,29,11,30,13.30
2019,03,29,11,31,13.30
2019,03,29,11,32,13.30
2019,03,29,11,33,13.40
2019,03,29,11,34,13.50
2019,03,29,11,35,13.50
2019,03,29,11,36,13.60
2019,03,29,11,37,13.60
2019,03,29,11,38,13.60
2019,03,29,11,39,13.70
2019,03,29,11,40,13.70
2019,03,29,11,41,13.70
2019,03,29,11,42,13.70
2019,03,29,11,43,13.70
2019,03,29,11,44,13.70
2019,03,29,11,45,13.70
2019,03,29,11,46,13.80
2019,03,29,11,47,13.80
2019,03,29,11,48,13.80
2019,03,29,11,49,13.80
2019,03,29,11,50,13.70
2019,03,29,11,51,13.70
2019,03,29,11,52,13.70
2019,03,29,11,53,13.80
2019,03,29,11,54,13.80
2019,03,29,11,55,13.90
2019,03,29,11,56,14.00
2019,03,29,11,57,14.10
2019,03,29,11,58,14.20
2019,03,29,11,59,14.30
2019,03,29,12,00,14.20
2019,03,29,12,01,14.20
2019,03,29,12,02,14.20
2019,03,29,12,03,14.10
2019,03,29,12,04,14.10
2019,03,29,12,05,14.00
2019,03,29,12,06,13.90
2019,03,29,12,07,13.80
2019,03,29,12,08,13.70
2019,03,29,12,09,13.70
2019,03,29,12,10,13.70
2019,03,29,12,11,13.70
2019,03,29,12,12,13.70
2019,03,29,12,13,13.70
2019,03,29,12,14,13.70
2019,03,29,12,15,13.60
2019,03,29,12,16,13.60
2019,03,29,12,17,13.60
2019,03,29,12,18,13.60
2019,03,29,12,19,13.60
2019,03,29,12,20,13.60
2019,03,29,12,21,13.60
2019,03,29,12,22,13.60
2019,03,29,12,23,13.50
2019,03,29,12,24,13.40
2019,03,29,12,25,13.40
2019,03,29,12,26,13.40
2019,03,29,12,27,13.40
2019,03,29,12,28,13.40
2019,03,29,12,29,13.40
2019,03,29,12,30,13.40
2019,03,29,12,31,13.40
2019,03,29,12,32,13.50
2019,03,29,12,33,13.60
2019,03,29,12,34,13.60
2019,03,29,12,35,13.60
2019,03,29,12,36,13.60
2019,03,29,12,37,13.50
2019,03,29,12,38,13.60
2019,03,29,12,39,13.50
2019,03,29,12,40,13.50
2019,03,29,12,41,13.60
2019,03,29,12,42,13.60
2019,03,29,12,43,13.60
2019,03,29,12,44,13.70
2019,03,29,12,45,13.70
2019,03,29,12,46,13.70
2019,03,29,12,47,13.70
2019,03,29,12,48,13.70
2019,03,29,12,49,13.70
2019,03,29,12,50,13.70
2019,03,29,12,51,13.70
2019,03,29,12,52,13.80
2019,03,29,12,53,13.80
2019,03,29,12,54,13.80
2019,03,29,12,55,13.80
2019,03,29,12,56,13.80
2019,03,29,12,57,13.90
2019,03,29,12,58,13.90
2019,03,29,12,59,13.90
2019,03,29,13,00,13.90
2019,03,29,13,01,14.00
2019,03,29,13,02,14.00
2019,03,29,13,03,14.10
2019,03,29,13,04,14.10
2019,03,29,13,05,14.20
2019,03,29,13,06,14.30
2019,03,29,13,07,14.30
2019,03,29,13,08,14.40
2019,03,29,13,09,14.40
2019,03,29,13,10,14.40
2019,03,29,13,11,14.40
2019,03,29,13,12,14.40
2019,03,29,13,13,14.40
2019,03,29,13,14,14.40
2019,03,29,13,15,14.50
2019,03,29,13,16,14.50
2019,03,29,13,17,14.60
2019,03,29,13,18,14.60
2019,03,29,13,19,14.60
2019,03,29,13,20,14.70
2019,03,29,13,21,14.70
2019,03,29,13,22,14.60
2019,03,29,13,23,14.60
2019,03,29,13,24,14.70
2019,03,29,13,25,14.70
2019,03,29,13,26,14.70
2019,03,29,13,27,14.70
2019,03,29,13,28,14.70
2019,03,29,13,29,14.70
2019,03,29,13,30,14.70
2019,03,29,13,31,14.80
2019,03,29,13,32,14.80
2019,03,29,13,33,14.80
2019,03,29,13,34,14.80
2019,03,29,13,35,14.80
2019,03,29,13,36,14.80
2019,03,29,13,37,14.80
2019,03,29,13,38,14.80
2019,03,29,13,39,14.90
2019,03,29,13,40,14.90
2019,03,29,13,41,15.00
2019,03,29,13,42,15.10
2019,03,29,13,43,15.20
2019,03,29,13,44,15.30
2019,03,29,13,45,15.40
2019,03,29,13,46,15.40
2019,03,29,13,47,15.30
2019,03,29,13,48,15.20
2019,03,29,13,49,15.20
2019,03,29,13,50,15.30
2019,03,29,13,51,15.40
2019,03,29,13,52,15.40
2019,03,29,13,53,15.40
2019,03,29,13,54,15.50
2019,03,29,13,55,15.50
2019,03,29,13,56,15.50
2019,03,29,13,57,15.50
2019,03,29,13,58,15.50
2019,03,29,13,59,15.60
2019,03,29,14,00,15.70
2019,03,29,14,01,15.70
2019,03,29,14,02,15.70
2019,03,29,14,03,15.70
2019,03,29,14,04,15.70
2019,03,29,14,05,15.60
2019,03,29,14,06,15.50
2019,03,29,14,07,15.40
2019,03,29,14,08,15.40
2019,03,29,14,09,15.40
2019,03,29,14,10,15.40
2019,03,29,14,11,15.50
2019,03,29,14,12,15.50
2019,03,29,14,13,15.60
2019,03,29,14,14,15.70
2019,03,29,14,15,15.70
2019,03,29,14,16,15.80
2019,03,29,14,17,15.80
2019,03,29,14,18,15.90
2019,03,29,14,19,15.90
2019,03,29,14,20,15.90
2019,03,29,14,21,15.90
2019,03,29,14,22,15.90
2019,03,29,14,23,15.90
2019,03,29,14,24,15.80
2019,03,29,14,25,15.90
2019,03,29,14,26,16.00
2019,03,29,14,27,16.10
2019,03,29,14,28,16.10
2019,03,29,14,29,16.00
2019,03,29,14,30,15.90
2019,03,29,14,31,15.80
2019,03,29,14,32,15.70
2019,03,29,14,33,15.70
2019,03,29,14,34,15.70
2019,03,29,14,35,15.60
2019,03,29,14,36,15.50
2019,03,29,14,37,15.40
2019,03,29,14,38,15.30
2019,03,29,14,39,15.30
2019,03,29,14,40,15.30
2019,03,29,14,41,15.30
2019,03,29,14,42,15.30
2019,03,29,14,43,15.30
2019,03,29,14,44,15.30
2019,03,29,14,45,15.30
2019,03,29,14,46,15.20
2019,03,29,14,47,15.20
2019,03,29,14,48,15.30
2019,03,29,14,49,15.30
2019,03,29,14,50,15.30
2019,03,29,14,51,15.30
2019,03,29,14,52,15.20
2019,03,29,14,53,15.20
2019,03,29,14,54,15.20
2019,03,29,14,55,15.20
2019,03,29,14,56,15.20
2019,03,29,14,57,15.10
2019,03,29,14,58,15.10
2019,03,29,14,59,15.10
2019,03,29,15,00,15.10
2019,03,29,15,01,15.10
2019,03,29,15,02,15.20
2019,03,29,15,03,15.30
2019,03,29,15,04,15.40
2019,03,29,15,05,15.50
2019,03,29,15,06,15.50
2019,03,29,15,07,15.60
2019,03,29,15,08,15.60
2019,03,29,15,09,15.60
2019,03,29,15,10,15.60
2019,03,29,15,11,15.60
2019,03,29,15,12,15.60
2019,03,29,15,13,15.70
2019,03,29,15,14,15.70
2019,03,29,15,15,15.70
2019,03,29,15,16,15.70
2019,03,29,15,17,15.70
2019,03,29,15,18,15.70
2019,03,29,15,19,15.60
2019,03,29,15,20,15.60
2019,03,29,15,21,15.60
2019,03,29,15,22,15.60
2019,03,29,15,23,15.50
2019,03,29,15,24,15.40
2019,03,29,15,25,15.30
2019,03,29,15,26,15.30
2019,03,29,15,27,15.30
2019,03,29,15,28,15.30
2019,03,29,15,29,15.30
2019,03,29,15,30,15.30
2019,03,29,15,31,15.20
2019,03,29,15,32,15.20
2019,03,29,15,33,15.20
2019,03,29,15,34,15.20
2019,03,29,15,35,15.20
2019,03,29,15,36,15.10
2019,03,29,15,37,15.10
2019,03,29,15,38,15.10
2019,03,29,15,39,15.20
2019,03,29,15,40,15.20
2019,03,29,15,41,15.20
2019,03,29,15,42,15.20
2019,03,29,15,43,15.20
2019,03,29,15,44,15.20
2019,03,29,15,45,15.30
2019,03,29,15,46,15.30
2019,03,29,15,47,15.30
2019,03,29,15,48,15.30
2019,03,29,15,49,15.20
2019,03,29,15,50,15.20
2019,03,29,15,51,15.20
2019,03,29,15,52,15.10
2019,03,29,15,53,15.20
2019,03,29,15,54,15.30
2019,03,29,15,55,15.40
2019,03,29,15,56,15.40
2019,03,29,15,57,15.40
2019,03,29,15,58,15.40
2019,03,29,15,59,15.40
2019,03,29,16,00,15.40
2019,03,29,16,01,15.40
2019,03,29,16,02,15.40
2019,03,29,16,03,15.50
2019,03,29,16,04,15.60
2019,03,29,16,05,15.60
2019,03,29,16,06,15.60
2019,03,29,16,07,15.60
2019,03,29,16,08,15.50
2019,03,29,16,09,15.50
2019,03,29,16,10,15.50
2019,03,29,16,11,15.50
2019,03,29,16,12,15.40
2019,03,29,16,13,15.40
2019,03,29,16,14,15.50
2019,03,29,16,15,15.50
2019,03,29,16,16,15.50
2019,03,29,16,17,15.40
2019,03,29,16,18,15.40
2019,03,29,16,19,15.30
2019,03,29,16,20,15.30
2019,03,29,16,21,15.30
2019,03,29,16,22,15.20
2019,03,29,16,23,15.20
2019,03,29,16,24,15.20
2019,03,29,16,25,15.10
2019,03,29,16,26,15.10
2019,03,29,16,27,15.10
2019,03,29,16,28,15.10
2019,03,29,16,29,15.10
2019,03,29,16,30,15.10
2019,03,29,16,31,15.20
2019,03,29,16,32,15.30
2019,03,29,16,33,15.30
2019,03,29,16,34,15.30
2019,03,29,16,35,15.30
2019,03,29,16,36,15.30
2019,03,29,16,37,15.30
2019,03,29,16,38,15.30
2019,03,29,16,39,15.40
2019,03,29,16,40,15.40
2019,03,29,16,41,15.40
2019,03,29,16,42,15.40
2019,03,29,16,43,15.40
2019,03,29,16,44,15.40
2019,03,29,16,45,15.40
2019,03,29,16,46,15.40
2019,03,29,16,47,15.40
2019,03,29,16,48,15.40
2019,03,29,16,49,15.40
2019,03,29,16,50,15.40
2019,03,29,16,51,15.40
2019,03,29,16,52,15.50
2019,03,29,16,53,15.60
2019,03,29,16,54,15.60
2019,03,29,16,55,15.60
2019,03,29,16,56,15.60
2019,03,29,16,57,15.70
2019,03,29,16,58,15.70
2019,03,29,16,59,15.70
2019,03,29,17,00,15.80
2019,03,29,17,01,15.80
2019,03,29,17,02,15.80
2019,03,29,17,03,15.80
2019,03,29,17,04,15.80
2019,03,29,17,05,15.70
2019,03,29,17,06,15.70
2019,03,29,17,07,15.70
2019,03,29,17,08,15.70
2019,03,29,17,09,15.70
2019,03,29,17,10,15.70
2019,03,29,17,11,15.80
2019,03,29,17,12,15.70
2019,03,29,17,13,15.70
2019,03,29,17,14,15.70
2019,03,29,17,15,15.70
2019,03,29,17,16,15.60
2019,03,29,17,17,15.70
2019,03,29,17,18,15.70
2019,03,29,17,19,15.60
2019,03,29,17,20,15.50
2019,03,29,17,21,15.40
2019,03,29,17,22,15.30
2019,03,29,17,23,15.20
2019,03,29,17,24,15.20
2019,03,29,17,25,15.20
2019,03,29,17,26,15.30
2019,03,29,17,27,15.30
2019,03,29,17,28,15.30
2019,03,29,17,29,15.30
2019,03,29,17,30,15.30
2019,03,29,17,31,15.30
2019,03,29,17,32,15.30
2019,03,29,17,33,15.30
2019,03,29,17,34,15.30
2019,03,29,17,35,15.30
2019,03,29,17,36,15.30
2019,03,29,17,37,15.30
2019,03,29,17,38,15.30
2019,03,29,17,39,15.20
2019,03,29,17,40,15.20
2019,03,29,17,41,15.20
2019,03,29,17,42,15.20
2019,03,29,17,43,15.20
2019,03,29,17,44,15.10